TimeEDT,TemperatureF,Dew PointF,Humidity,Sea Level PressureIn,VisibilityMPH,Wind Direction,Wind SpeedMPH,Gust SpeedMPH,PrecipitationIn,Events,Conditions,WindDirDegrees,DateUTC
12:15 AM,66.2,64.4,94,29.92,10.0,SSW,8.1,-,0.01,,Mostly Cloudy,200,2013-10-06 04:15:00
12:35 AM,66.2,64.4,94,29.92,10.0,SSW,10.4,-,0.01,Rain,Light Rain,200,2013-10-06 04:35:00
12:55 AM,66.2,66.2,100,29.92,10.0,SSW,5.8,-,0.02,Rain,Light Rain,200,2013-10-06 04:55:00
1:15 AM,66.2,66.2,100,29.92,10.0,South,6.9,-,N/A,Rain,Rain,190,2013-10-06 05:15:00
1:35 AM,66.2,66.2,100,29.91,10.0,South,6.9,-,0.01,Rain,Light Rain,190,2013-10-06 05:35:00
1:55 AM,64.4,64.4,100,29.91,10.0,South,8.1,-,0.01,Rain,Light Rain,180,2013-10-06 05:55:00
2:15 AM,64.4,64.4,100,29.90,10.0,SSE,11.5,-,N/A,,Mostly Cloudy,160,2013-10-06 06:15:00
2:35 AM,66.2,66.2,100,29.91,10.0,South,8.1,-,0.01,,Overcast,170,2013-10-06 06:35:00
2:55 AM,64.4,64.4,100,29.92,10.0,South,8.1,-,0.01,Rain,Light Rain,180,2013-10-06 06:55:00
3:15 AM,64.4,64.4,100,29.91,10.0,South,12.7,18.4,N/A,Rain,Rain,170,2013-10-06 07:15:00
3:35 AM,64.4,64.4,100,29.89,7.0,South,9.2,-,0.01,Rain,Rain,170,2013-10-06 07:35:00
3:55 AM,64.4,64.4,100,29.88,10.0,South,6.9,-,0.01,Rain,Light Rain,170,2013-10-06 07:55:00
4:15 AM,64.4,64.4,100,29.87,10.0,South,3.5,-,0.01,Rain,Rain,190,2013-10-06 08:15:00
4:35 AM,64.4,64.4,100,29.87,5.0,SSW,4.6,-,0.01,Rain,Heavy Rain,200,2013-10-06 08:35:00
4:55 AM,64.4,64.4,100,29.88,5.0,SSW,5.8,-,0.01,Rain,Rain,200,2013-10-06 08:55:00
5:15 AM,64.4,64.4,100,29.88,5.0,SW,4.6,-,0.01,Rain,Heavy Rain,230,2013-10-06 09:15:00
5:35 AM,64.4,64.4,100,29.88,5.0,WSW,5.8,-,0.01,Rain,Heavy Rain,240,2013-10-06 09:35:00
5:55 AM,62.6,62.6,100,29.88,7.0,SW,6.9,-,0.02,Rain,Rain,230,2013-10-06 09:55:00
6:15 AM,62.6,62.6,100,29.87,5.0,SSW,3.5,-,0.01,Rain,Rain,200,2013-10-06 10:15:00
6:35 AM,62.6,62.6,100,29.87,7.0,South,6.9,-,0.01,Rain,Rain,180,2013-10-06 10:35:00
6:55 AM,62.6,62.6,100,29.86,10.0,South,6.9,-,0.02,Rain,Light Rain,170,2013-10-06 10:55:00
7:15 AM,62.6,62.6,100,29.86,7.0,South,9.2,-,0.01,Rain,Rain,170,2013-10-06 11:15:00
7:35 AM,62.6,62.6,100,29.86,10.0,South,8.1,-,0.02,Rain,Rain,170,2013-10-06 11:35:00
7:55 AM,62.6,62.6,100,29.86,10.0,South,8.1,-,0.03,Rain,Rain,190,2013-10-06 11:55:00
8:15 AM,62.6,62.6,100,29.85,10.0,South,8.1,-,N/A,Rain,Light Rain,170,2013-10-06 12:15:00
8:35 AM,62.6,62.6,100,29.85,10.0,South,6.9,-,0.01,Rain,Rain,170,2013-10-06 12:35:00
8:55 AM,62.6,62.6,100,29.84,10.0,SSE,11.5,17.3,0.02,,Overcast,150,2013-10-06 12:55:00
9:15 AM,62.6,62.6,100,29.85,10.0,SSE,10.4,-,0.01,Rain,Light Rain,160,2013-10-06 13:15:00
9:35 AM,62.6,62.6,100,29.85,10.0,South,11.5,21.9,0.02,,Drizzle,170,2013-10-06 13:35:00
9:55 AM,62.6,62.6,100,29.84,10.0,SSE,9.2,-,0.02,Rain,Light Rain,160,2013-10-06 13:55:00
10:15 AM,62.6,62.6,100,29.84,10.0,SSE,10.4,17.3,0.01,Rain,Light Rain,160,2013-10-06 14:15:00
10:35 AM,62.6,62.6,100,29.85,10.0,South,10.4,16.1,0.02,,Drizzle,180,2013-10-06 14:35:00
10:55 AM,62.6,62.6,100,29.84,10.0,South,10.4,-,0.02,,Light Drizzle,170,2013-10-06 14:55:00
11:15 AM,62.6,62.6,100,29.82,10.0,South,10.4,-,0.01,,Light Drizzle,170,2013-10-06 15:15:00
11:35 AM,62.6,62.6,100,29.82,10.0,South,9.2,-,0.02,Rain,Light Rain,170,2013-10-06 15:35:00
11:55 AM,64.4,64.4,100,29.81,10.0,South,11.5,16.1,0.02,,Drizzle,170,2013-10-06 15:55:00
12:15 PM,64.4,64.4,100,29.79,10.0,SSE,11.5,18.4,0.01,,Light Drizzle,160,2013-10-06 16:15:00
12:35 PM,64.4,64.4,100,29.78,10.0,SSE,12.7,23.0,0.02,,Overcast,160,2013-10-06 16:35:00
12:55 PM,66.2,66.2,100,29.77,10.0,SSE,17.3,24.2,0.03,,Overcast,160,2013-10-06 16:55:00
1:15 PM,66.2,64.4,94,29.77,10.0,South,13.8,23.0,N/A,,Overcast,170,2013-10-06 17:15:00
1:35 PM,68.0,64.4,88,29.75,10.0,South,13.8,24.2,0.01,,Overcast,180,2013-10-06 17:35:00
1:55 PM,68.0,66.2,94,29.74,10.0,South,12.7,21.9,0.02,,Overcast,170,2013-10-06 17:55:00
2:15 PM,68.0,64.4,88,29.73,10.0,South,15.0,23.0,0.01,,Overcast,180,2013-10-06 18:15:00
2:35 PM,69.8,64.4,83,29.72,10.0,South,11.5,20.7,0.01,,Overcast,180,2013-10-06 18:35:00
2:55 PM,69.8,64.4,83,29.71,10.0,South,13.8,23.0,0.02,,Overcast,190,2013-10-06 18:55:00
3:15 PM,68.0,64.4,88,29.73,7.0,West,16.1,24.2,0.01,Rain,Rain,270,2013-10-06 19:15:00
3:35 PM,60.8,59.0,94,29.74,2.0,West,13.8,21.9,0.01,Rain-Thunderstorm,Heavy Thunderstorms and Rain,280,2013-10-06 19:35:00
3:55 PM,60.8,60.8,100,29.73,10.0,West,13.8,21.9,0.02,,Overcast,260,2013-10-06 19:55:00
4:15 PM,59.0,59.0,100,29.74,10.0,West,10.4,19.6,N/A,,Overcast,270,2013-10-06 20:15:00
4:35 PM,59.0,59.0,100,29.74,7.0,West,10.4,-,0.01,,Overcast,260,2013-10-06 20:35:00
4:55 PM,59.0,59.0,100,29.74,10.0,West,6.9,-,0.02,,Overcast,280,2013-10-06 20:55:00
5:15 PM,59.0,59.0,100,29.73,10.0,SW,4.6,-,N/A,,Overcast,220,2013-10-06 21:15:00
5:35 PM,59.0,59.0,100,29.75,10.0,West,6.9,-,0.01,,Overcast,270,2013-10-06 21:35:00
5:55 PM,59.0,57.2,94,29.76,10.0,West,15.0,-,0.02,Rain,Light Rain,260,2013-10-06 21:55:00
6:15 PM,57.2,51.8,82,29.77,10.0,West,11.5,20.7,0.01,,Light Drizzle,260,2013-10-06 22:15:00
6:35 PM,55.4,51.8,88,29.78,10.0,WSW,11.5,16.1,0.01,Rain,Light Rain,250,2013-10-06 22:35:00
6:55 PM,53.6,51.8,94,29.77,10.0,WSW,4.6,-,0.02,,Drizzle,250,2013-10-06 22:55:00
7:15 PM,53.6,53.6,100,29.78,10.0,SW,5.8,-,0.01,Rain,Light Rain,230,2013-10-06 23:15:00
7:35 PM,53.6,53.6,100,29.78,10.0,SW,3.5,-,0.01,,Light Drizzle,220,2013-10-06 23:35:00
7:55 PM,53.6,53.6,100,29.78,10.0,WSW,4.6,-,0.02,,Overcast,240,2013-10-06 23:55:00
8:15 PM,53.6,53.6,100,29.78,10.0,SSW,4.6,-,N/A,,Mostly Cloudy,210,2013-10-07 00:15:00
8:35 PM,53.6,53.6,100,29.80,10.0,SSW,4.6,-,0.01,Rain,Light Rain,210,2013-10-07 00:35:00
8:55 PM,53.6,51.8,94,29.79,10.0,SW,5.8,-,0.02,,Light Drizzle,220,2013-10-07 00:55:00
9:15 PM,53.6,51.8,94,29.81,10.0,SSW,4.6,-,N/A,,Overcast,200,2013-10-07 01:15:00
9:35 PM,53.6,51.8,94,29.80,10.0,SSW,4.6,-,0.01,,Mostly Cloudy,210,2013-10-07 01:35:00
9:55 PM,53.6,53.6,100,29.80,10.0,SSW,6.9,-,0.01,,Mostly Cloudy,210,2013-10-07 01:55:00
10:15 PM,53.6,53.6,100,29.80,10.0,SW,5.8,-,0.01,,Overcast,220,2013-10-07 02:15:00
10:35 PM,53.6,53.6,100,29.80,10.0,SW,8.1,-,0.01,,Mostly Cloudy,230,2013-10-07 02:35:00
10:55 PM,53.6,53.6,100,29.81,10.0,WSW,10.4,-,0.01,Rain,Light Rain,240,2013-10-07 02:55:00
11:15 PM,51.8,46.4,82,29.82,10.0,West,16.1,24.2,0.01,,Overcast,280,2013-10-07 03:15:00
11:35 PM,51.8,46.4,82,29.82,10.0,WNW,10.4,-,0.01,,Overcast,290,2013-10-07 03:35:00
11:55 PM,50.0,41.0,71,29.82,10.0,West,10.4,19.6,0.02,,Overcast,280,2013-10-07 03:55:00